This is the latest recevied weather packets stored in our database for station/object AE6BH. If no packets are shown the sender has not sent any weather packets the latest 10 day(s).
| Time | Temp. | Humidity | Pressure | Rain* | Wind** | Luminosity | Snow |
|---|---|---|---|---|---|---|---|
| 1777648506 | 15° C | 72% | 1015.2 hPa | 0 mm | - | 81 W/m² | - |
| 1777648203 | 15° C | 72% | 1015.3 hPa | 0 mm | - | 78 W/m² | - |
| 1777647898 | 15° C | 72% | 1015.3 hPa | 0 mm | - | 64 W/m² | - |
| 1777647595 | 15° C | 72% | 1015.2 hPa | 0 mm | - | 58 W/m² | - |
| 1777647291 | 15° C | 73% | 1015.2 hPa | 0 mm | - | 52 W/m² | - |
| 1777646990 | 15° C | 73% | 1015.2 hPa | 0 mm | - | 49 W/m² | - |
| 1777646684 | 14.44° C | 73% | 1015.2 hPa | 0 mm | - | 51 W/m² | - |
| 1777646381 | 15° C | 73% | 1015.2 hPa | 0 mm | - | 49 W/m² | - |
| 1777646077 | 14.44° C | 74% | 1015.1 hPa | 0 mm | - | 41 W/m² | - |
| 1777645774 | 14.44° C | 74% | 1014.9 hPa | 0 mm | - | 34 W/m² | - |
| 1777645472 | 14.44° C | 74% | 1014.9 hPa | 0 mm | - | 31 W/m² | - |
| 1777645167 | 14.44° C | 74% | 1014.9 hPa | 0 mm | - | 32 W/m² | - |
| 1777644863 | 14.44° C | 74% | 1014.8 hPa | 0 mm | - | 32 W/m² | - |
| 1777644561 | 14.44° C | 74% | 1014.6 hPa | 0 mm | - | 31 W/m² | - |
| 1777644257 | 14.44° C | 75% | 1014.5 hPa | 0 mm | - | 28 W/m² | - |
| 1777643954 | 14.44° C | 75% | 1014.6 hPa | 0 mm | - | 20 W/m² | - |
| 1777643651 | 14.44° C | 75% | 1014.6 hPa | 0 mm | - | 17 W/m² | - |
| 1777643348 | 14.44° C | 75% | 1014.7 hPa | 0 mm | - | 15 W/m² | - |
| 1777643045 | 14.44° C | 75% | 1014.7 hPa | 0 mm | - | 11 W/m² | - |
| 1777642741 | 14.44° C | 75% | 1014.8 hPa | 0 mm | - | 9 W/m² | - |
| 1777642438 | 14.44° C | 75% | 1014.8 hPa | 0 mm | - | 7 W/m² | - |
| 1777642134 | 13.89° C | 75% | 1014.5 hPa | 0 mm | - | 4 W/m² | - |
| 1777641830 | 13.89° C | 75% | 1014.5 hPa | 0 mm | - | 3 W/m² | - |
| 1777641526 | 13.89° C | 75% | 1014.3 hPa | 0 mm | - | 3 W/m² | - |
| 1777641221 | 14.44° C | 75% | 1014.5 hPa | 0 mm | - | 1 W/m² | - |
* Rain latest hour (hover to see other rain measurements)
** Current wind speed in m/s (hover to see current wind gust speed)